Regional Weather Roundup
Issued by NWS

Home | Current Version | Previous Version | Text Only | Print | Product List | Glossary Off
Versions: 1 2 3 4 5 6 7 8 9 10 11 12 13 14 15 16 17 18 19 20 21 22 23 24 25 26 27 28 29 30 31 32 33 34 35 36 37 38 39 40 41 42 43 44 45 46 47 48 49 50

000
ASUS43 KLOT 301010
RWRIL

ILLINOIS REGIONAL WEATHER ROUNDUP
NATIONAL WEATHER SERVICE CHICAGO/ROMEOVILLE IL
400 AM CST FRI JAN 30 2015

NOTE: "FAIR" INDICATES FEW OR NO CLOUDS BELOW 12,000 FEET WITH NO
SIGNIFICANT WEATHER AND/OR OBSTRUCTIONS TO VISIBILITY.

* THESE STATIONS ARE NOT UNDER NWS QUALITY CONTROL. THEY ALSO MAY NOT
  REPORT WEATHER SUCH AS PRECIPITATION OR FOG.

ILZ001-002-007-009-015-016-024-301100-
NORTHWEST ILLINOIS

CITY           SKY/WX    TMP DP  RH WIND       PRES   REMARKS
MOLINE         CLEAR     22  12  65 NW10      30.49R WCI  11
STERLING*      CLEAR     23  12  63 N10       30.46R WCI  12
SAVANNA*       CLEAR     22  11  62 NW8       30.48R WCI  13
$$

ILZ003-004-008-010-011-017-018-301100-
NORTH CENTRAL ILLINOIS

CITY           SKY/WX    TMP DP  RH WIND       PRES   REMARKS
ROCKFORD       CLEAR     23  12  62 N12G21    30.46R WCI  12
FREEPORT*      MOCLDY    22  13  68 N12       30.47R WCI  10
ROCHELLE*      PTCLDY    22  18  83 NE7       30.44S WCI  14
DE KALB*       CLEAR     19  12  74 N5        30.42R WCI  12
PERU*          CLEAR     23  17  78 NW12      30.45R WCI  12
$$

ILZ005-006-012>014-019>023-301100-
NORTHEAST ILLINOIS

CITY           SKY/WX    TMP DP  RH WIND       PRES   REMARKS
CHICAGO-OHARE  CLEAR     23   9  55 N14       30.41R WCI  11
CHICAGO-MIDWAY PTCLDY    26  10  50 N12       30.42R WCI  16
AURORA         PTCLDY    20  14  77 NW6       30.42R WCI  12
LANSING*       PTCLDY    26  10  51 N9        30.41R WCI  16
JOLIET*        MOCLDY    25  14  64 N6        30.43R WCI  18
WAUKEGAN       CLEAR     20  10  65 VRB7      30.41R WCI  11
DUPAGE AIRPORT PTCLDY    22  10  60 N9        30.41R WCI  12
KANKAKEE*      PTCLDY    27  20  74 N12       30.41R WCI  17
WHEELING       CLEAR     22   8  55 NW6       30.43R WCI  14
MORRIS*        CLEAR     23  18  83 N5        30.42S WCI  16
ROMEOVILLE*    CLOUDY    25  10  53 N9        30.42R WCI  16
NORTHERLY ISL    N/A     26   9  48 NW16        N/A  WCI  14
$$

LMZ740>746-301100-
SOUTHERN LAKE MICHIGAN

STATION/POSITION SKY/WX   TEMP    WIND        PRES    VSBY  WAVE
                          AIR SEA DIR/SP/G                  HT/PER
                          (F)     (DEG/KT/KT) (MB)    (MI)  (FT/S)
WAUKEGAN HARBOR            23     330/ 12/ 18   N/A
HARRISON CRIB              26     340/ 21/ 25   N/A
BURNHAM HARBOR             26     330/  7/ 18   N/A
CALUMET HARBOR             26     320/ 11/ 20   N/A
MICHIGAN CITY              27     330/ 24/ 28   N/A
$$

ILZ025>027-034>036-040-047-049-050-058-095>099-301100-
WEST-CENTRAL ILLINOIS

CITY           SKY/WX    TMP DP  RH WIND       PRES   REMARKS
QUINCY         CLOUDY    26  17  68 N9        30.50R WCI  17
GALESBURG*     CLEAR     23  18  81 NW9       30.47S WCI  13
MACOMB*        CLEAR     24  19  82 NW12      30.52R WCI  13
JACKSONVILLE*  CLOUDY    30  20  67 NW13      30.47F WCI  20
PITTSFIELD*    MOCLDY    28  20  73 NW8       30.50R WCI  19
$$

ILZ028>032-037-038-041>044-048-051>054-059>061-301100-
CENTRAL ILLINOIS

CITY           SKY/WX    TMP DP  RH WIND       PRES   REMARKS
PONTIAC        CLEAR     27  22  80 NW12      30.43R WCI  17
BLOOMINGTON    CLEAR     26  19  74 NW12      30.43R WCI  16
DECATUR        CLOUDY    30  18  60 N14G25    30.43R WCI  19
PEORIA         CLEAR     26  17  68 NW7       30.46R WCI  18
LACON*         CLEAR     24  18  77 NW7       30.46R WCI  16
LINCOLN*       CLEAR     29  22  76 NW7       30.47R WCI  22
SPRINGFIELD    CLEAR     27  19  72 NW10      30.47R WCI  17
TAYLORVILLE    CLOUDY    30  21  69 NW13      30.46R WCI  20
$$

ILZ033-039-045-046-055>057-062-063-301100-
EAST-CENTRAL ILLINOIS

CITY           SKY/WX    TMP DP  RH WIND       PRES   REMARKS
CHAMPAIGN      CLOUDY    28  20  71 NW16      30.40R WCI  16
DANVILLE*      PTCLDY    29  21  70 N15       30.35R WCI  18
RANTOUL*       CLOUDY    31  22  69 NW13G22   30.40R WCI  21
MATTOON        MOCLDY    29  22  75 NW18      30.40R WCI  16
PARIS*         CLOUDY    32  27  83 NW10G18   30.39R WCI  23
$$

ILZ079-100>102-301100-
SOUTHWEST ILLINOIS

CITY           SKY/WX    TMP DP  RH WIND       PRES   REMARKS
ALTON          CLOUDY    31  19  62 NW13G18   30.48R WCI  21
BELLEVILLE     CLOUDY    32  22  67 N8        30.47R WCI  24
CAHOKIA*       MOCLDY    32  22  66 N9        30.48R WCI  24
SPARTA*        CLOUDY    32  24  71 N9        30.47R WCI  24
$$

ILZ064>066-069>071-074>076-080>082-084>086-088>090-092>094-301100-
SOUTH-CENTRAL ILLINOIS

CITY           SKY/WX    TMP DP  RH WIND       PRES   REMARKS
CARBONDALE     CLOUDY    34  23  64 N8        30.45F WCI  27
CAIRO*         CLOUDY    38  27  62 N9        30.45S WCI  32
EFFINGHAM*     CLOUDY    32  19  59 NW13G23   30.44S WCI  22
MARION         CLOUDY    36  23  60 N9G18     30.45F WCI  29
MT. VERNON     CLOUDY    34  21  60 N5        30.44S WCI  30
CENTRALIA*     CLOUDY    32  23  69 N10G16    30.44R WCI  24
SALEM*         CLOUDY    34  23  65 NW10G18   30.44S WCI  26
METROPOLIS*    CLOUDY    36  27  68 NW8       30.44S WCI  30
$$

ILZ067-068-072-073-078-083-087-091-301100-
SOUTHEAST ILLINOIS

CITY           SKY/WX    TMP DP  RH WIND       PRES   REMARKS
LAWRENCEVILLE  CLOUDY    34  24  67 NW14      30.41R WCI  25
FLORA*         CLOUDY    33  24  70 NW10G18   30.44R WCI  24
FAIRFIELD*     CLOUDY    34  24  66 NW6       30.43S WCI  29
HARRISBURG*    CLOUDY    34  25  68 N7        30.45S WCI  28
ROBINSON*      CLOUDY    33  25  73 NW16G22   30.41R WCI  22
CARMI*         CLOUDY    36  28  73 NW10      30.43S WCI  28
$$

ABBREVIATIONS USED IN REMARKS
   TC - TEMPERATURE IN CELSIUS
  WCI - WIND CHILL INDEX
   HX - HEAT INDEX
  VSB - VISIBILITY
$$



USA.gov is the U.S. government's official web portal to all federal, state and local government web resources and services.